User: anonymous   Login
Location: Caltech
(34.1382°N, 118.1253°W)
Time: 22:18:32
(UTC-08:00)
Language:

Iridium 94 - Orbit

View from above orbital plane
View from above orbital plane
View from above satellite
View from above satellite

Ground track
Ground track

The orbit data is extracted from the following two-line orbital elements,

1 27374U 02005C   15028.23483229  .00000259  00000-0  85397-4 0  8293
2 27374 086.3941 259.7641 0003107 066.7454 072.2662 14.34214672691110
Epoch (UTC): 28 January 2015 05:38:09
Eccentricity: 0.0003107
inclination: 86.3941°
perigee height: 775 km
apogee height: 780 km
right ascension of ascending node: 259.7641°
argument of perigee: 66.7454°
revolutions per day: 14.34214672
mean anomaly at epoch: 72.2662°
orbit number at epoch: 69111

The dashed part of the orbit path shows where the satellite is in the earth's shadow,  

DLR